Content
SEND FEEDBACK

Daily
Averages
Monthly
Summary
United States of America

EVANSVILLE, WYOMING


Home > North America > United States > Wyoming
Elevation: 5178 feet     Latitude: 42 52N     Longitude: 106 18W

WEATHER
 
SELECT A DAY
Number of Records: 197,040;   Date Range: 1/1/95 - 11/27/14
 
SHARE

PRINT THIS DATA

[ ← Previous Day ]
WEATHER ALMANAC - JANUARY 23, 2013
[ Next Day → ]
[ °C ]   °F
Weather ElementAverageHighLow
Temperature42.5 °F50 °F (11:53 am)37.9 °F (2:53 am)
Dewpoint5.7 °F10 °F (4:53 pm)1.9 °F (5:53 am)
Humidity22.2 %28 % (6:53 pm)15 % (11:53 am)
Barometer30.07 in30.13 in (8:53 am)29.99 in (11:53 pm)
Wind Speed20.3 mph26.5 mph (11:53 am)
Wind Gust35.7 mph (7:53 pm)
Weather ElementAverage
Visibility10 mi
Wind DirectionSW (220.4 °)

Weather ElementTotal
Precipitation---
Heating Degree Days21.1 (Base 65)
Averaged from 23 records on January 23, 2013
WEATHER CONDITIONS BREAKOUT
WIND DIRECTION BREAKOUT
WEATHER BY HOUR - JANUARY 23, 2013
[ °C ]   °F
Local TimeTemperatureDewpointHumidityBarometerVisibilityWind DirectionWind SpeedGust SpeedPrecipitationEventsConditions
1:53 AM39.0 °F3.9 °F23 %30.06 in10.0 miSW (230°)20.7 mph27.6 mphClear
2:53 AM37.9 °F3.0 °F23 %30.07 in10.0 miSW (220°)18.4 mph31.1 mphClear
3:53 AM39.0 °F3.0 °F22 %30.06 in10.0 miSW (220°)25.3 mph32.2 mphClear
4:53 AM39.0 °F3.0 °F22 %30.09 in10.0 miSW (220°)21.9 mph31.1 mphClear
5:53 AM39.9 °F1.9 °F20 %30.10 in10.0 miSW (220°)19.6 mphClear
6:53 AM39.9 °F1.9 °F20 %30.10 in10.0 miSW (220°)24.2 mph34.5 mphClear
7:53 AM39.0 °F3.0 °F22 %30.12 in10.0 miSW (220°)23.0 mph31.1 mphClear
8:53 AM39.9 °F3.0 °F21 %30.13 in10.0 miSSW (210°)23.0 mph32.2 mphClear
9:53 AM42.1 °F3.9 °F21 %30.12 in10.0 miSSW (210°)21.9 mph29.9 mphClear
10:53 AM44.1 °F5.0 °F20 %30.13 in10.0 miSW (220°)25.3 mph31.1 mphClear
11:53 AM50.0 °F3.9 °F15 %30.08 in10.0 miSSW (210°)26.5 mph34.5 mphClear
12:53 PM50.0 °F5.0 °F16 %30.05 in10.0 miSSW (210°)23.0 mph32.2 mphClear
1:53 PM50.0 °F6.1 °F17 %30.04 in10.0 miSW (220°)23.0 mph31.1 mphClear
2:53 PM48.2 °F6.8 °F19 %30.06 in10.0 miSSW (210°)24.2 mph29.9 mphClear
3:53 PM46.0 °F8.1 °F21 %30.05 in10.0 miSSW (210°)12.7 mphClear
4:53 PM44.1 °F10.0 °F25 %30.07 in10.0 miSSW (210°)13.8 mphClear
5:53 PM43.0 °F10.0 °F26 %30.06 in10.0 miSW (220°)15.0 mphClear
6:53 PM41.0 °F10.0 °F28 %30.07 in10.0 miSW (230°)15.0 mph21.9 mphClear
7:53 PM43.0 °F8.1 °F24 %30.02 in10.0 miSW (220°)26.5 mph35.7 mphClear
8:53 PM42.1 °F8.1 °F25 %30.03 in10.0 miSW (230°)19.6 mph28.8 mphClear
9:53 PM39.9 °F8.1 °F27 %30.04 in10.0 miSW (230°)10.4 mphClear
10:53 PM41.0 °F8.1 °F26 %30.01 in10.0 miWSW (250°)15.0 mphClear
11:53 PM39.0 °F8.1 °F28 %29.99 in10.0 miSW (230°)19.6 mphClear
Hourly data recorded from KCPR, located miles away from Evansville, Wyoming







STORIES FROM OUR PARTNERS